Location: Caltech
(34.1382°N, 118.1253°W)
Time: 10:59:52
(UTC-07:00)

Iridium 18 - Visible Passes

Search period start: 30 August 2015 00:00
Search period end: 09 September 2015 00:00
Orbit: 776 x 779 km, 86.4° (Epoch: 30 August)

Date Brightness Start Highest point End Pass type
(mag) Time Alt. Az. Time Alt. Az. Time Alt. Az.
30 Aug 7.6 21:01:30 13° NE 21:01:30 13° NE 21:02:24 10° NE visible
30 Aug 7.4 22:41:57 27° NNW 22:41:57 27° NNW 22:44:30 10° NNW visible
31 Aug 6.8 22:08:19 34° N 22:08:19 34° N 22:11:11 10° N visible
01 Sep 6.7 21:34:39 30° NNE 21:34:39 30° NNE 21:37:28 10° NNE visible
01 Sep 8.2 23:15:06 14° NW 23:15:06 14° NW 23:16:35 10° NW visible
02 Sep 7.1 21:00:58 20° NE 21:00:58 20° NE 21:03:17 10° NNE visible
02 Sep 7.5 22:41:25 25° NW 22:41:25 25° NW 22:44:14 10° NNW visible
03 Sep 7.5 20:27:15 11° ENE 20:27:15 11° ENE 20:28:00 10° NE visible
03 Sep 6.7 22:07:42 40° NNW 22:07:42 40° NNW 22:11:11 10° N visible
04 Sep 6.1 21:33:58 47° NNE 21:33:58 47° NNE 21:37:42 10° N visible
04 Sep 8.5 23:14:25 10° WNW 23:14:25 10° WNW 23:14:25 10° WNW visible
05 Sep 6.4 21:00:11 32° ENE 21:00:11 32° ENE 21:03:49 10° NNE visible
05 Sep 7.8 22:40:37 20° WNW 22:40:37 20° WNW 22:43:43 10° NNW visible
06 Sep 7.0 20:26:22 18° ENE 20:26:22 18° ENE 20:29:21 10° NE visible
06 Sep 6.8 22:06:48 38° WNW 22:06:48 38° WNW 22:11:02 10° NNW visible
07 Sep 5.6 21:32:56 73° NW 21:32:56 73° NW 21:37:47 10° N visible
08 Sep 5.6 20:59:00 54° E 20:59:04 54° E 21:04:09 10° NNE visible
08 Sep 8.1 22:39:26 14° W 22:40:15 14° WNW 22:42:44 10° NW visible
